This is the latest recevied weather packets stored in our database for station/object WX5HOT. If no packets are shown the sender has not sent any weather packets the latest 1 day(s).
| Time | Temp. | Humidity | Pressure | Rain* | Wind** | Luminosity | Snow |
|---|---|---|---|---|---|---|---|
| 1778086516 | 6.67° C | 99% | 1066.1 hPa | 0 mm | - | 48 W/m² | - |
| 1778086212 | 7.22° C | 99% | 1065.5 hPa | 0 mm | - | 48 W/m² | - |
| 1778082879 | 6.67° C | 99% | 1064.6 hPa | 1.78 mm | - | 73 W/m² | - |
| 1778081765 | 7.22° C | 99% | 1064.7 hPa | 0 mm | - | 99 W/m² | - |
| 1778080555 | 7.22° C | 99% | 1064 hPa | 0 mm | - | 100 W/m² | - |
| 1778079342 | 7.22° C | 99% | 1064.4 hPa | 0 mm | - | 65 W/m² | - |
| 1778077225 | 6.67° C | 99% | 1064.3 hPa | 0 mm | - | 44 W/m² | - |
| 1778076922 | 7.22° C | 99% | 1064.3 hPa | 0 mm | - | 49 W/m² | - |
| 1778076015 | 7.22° C | 99% | 1063.7 hPa | 0 mm | - | 53 W/m² | - |
| 1778075104 | 6.67° C | 99% | 1063.3 hPa | 0 mm | - | 49 W/m² | - |
| 1778074194 | 7.22° C | 99% | 1063.3 hPa | 0 mm | - | 35 W/m² | - |
| 1778073285 | 7.22° C | 99% | 1063.2 hPa | 0 mm | - | 58 W/m² | - |
| 1778072982 | 7.78° C | 99% | 1063.6 hPa | 0 mm | - | 23 W/m² | - |
| 1778069958 | 8.33° C | 99% | 1062.7 hPa | 0 mm | - | 10 W/m² | - |
| 1778068746 | 8.89° C | 99% | 1062.2 hPa | 0 mm | - | 7 W/m² | - |
| 1778067235 | 9.44° C | 99% | 1061.4 hPa | 1.78 mm | - | 2 W/m² | - |
| 1778066326 | 10° C | 99% | 1061.2 hPa | 0 mm | - | 0 W/m² | - |
| 1778066024 | 10° C | 99% | 1061.2 hPa | 1.78 mm | - | 0 W/m² | - |
| 1778065418 | 10.56° C | 99% | 1060.7 hPa | 0 mm | - | 0 W/m² | - |
| 1778063904 | 10.56° C | 99% | 1060.6 hPa | 0 mm | - | 0 W/m² | - |
| 1778063299 | 11.11° C | 99% | 1060.7 hPa | 0 mm | - | 0 W/m² | - |
| 1778062694 | 11.67° C | 99% | 1060.2 hPa | 0 mm | - | 0 W/m² | - |
| 1778062088 | 11.67° C | 99% | 1059.9 hPa | 1.27 mm | - | 0 W/m² | - |
| 1778061786 | 11.67° C | 99% | 1060.3 hPa | 1.27 mm | - | 0 W/m² | - |
| 1778061484 | 11.67° C | 99% | 1060.1 hPa | 0 mm | - | 0 W/m² | - |
* Rain latest hour (hover to see other rain measurements)
** Current wind speed in m/s (hover to see current wind gust speed)